Vertical_Velocity
0 0 0 -1 -2 1 2 1 1 -0 -2 -1 -1 -1 -3 -2 -0 -0 -2 0 0 -1 -1 -1 -1 -1 -1 -1 -1 -1 -2 -2 -0 0 0 1 -1 -2 -3 -2 1 -5 6 4 1 0 2 1 1
-0 1 -1 0 0 0 1 1 1 -0 -1 -2 -2 -2 -1 -2 -3 -4 -4 -5 -4 -2 -3 -2 -1 -2 -2 2 0 -0 -2 -4 -1 -0 -2 -2 1 -1 -1 -1 -3 4 6 -2 0 1 3 1 0
-0 1 -1 0 1 1 2 3 -1 0 1 -2 -1 -2 -2 -2 -2 -5 -4 -3 0 -1 -2 -1 -2 -2 -1 -1 1 1 -1 -1 -3 0 -3 -1 -3 -2 -1 3 3 -2 0 3 2 -2 -2 -3 2
-2 0 -2 -1 3 -1 0 2 1 1 -1 -1 0 -3 -2 -4 -4 -3 -2 -4 -3 -3 -3 -2 -3 -1 -1 -3 -2 1 -0 -3 -4 -1 -1 -1 2 -1 -3 46 15 35 -3 13 3 3 -2 -0 -5
-0 2 -2 4 1 -1 -2 0 2 2 1 1 1 -2 -3 -5 -5 4 -3 -2 -2 -2 -0 1 3 2 -1 -1 -0 2 2 -1 -2 -3 -0 -3 -3 4 5 -20 3 12 47 -0 2 -1 -2 -6 -3
-3 0 0 5 2 -2 -4 -1 3 0 0 4 1 1 -5 -4 -2 3 -2 -2 -4 -3 -3 -2 -1 -2 0 -2 -1 -0 -1 1 1 1 -2 2 -2 -2 2 -5 -7 -1 24 1 4 -0 -4 1 -1
0 -0 3 4 6 5 -3 -3 2 1 -1 -2 3 1 -3 -8 2 1 2 -1 -4 -2 -3 -3 -3 -1 -3 -2 -1 -0 -0 -1 3 -0 -1 -1 2 -3 0 -0 1 2 4 0 1 -2 -2 1 -2
1 -5 2 6 9 7 -1 -3 -0 -2 -5 1 2 -3 -2 1 0 1 1 2 -3 -3 -3 -3 -3 -3 0 -2 -2 0 1 -2 -1 -0 1 -4 1 -1 -0 1 -1 -4 -4 -3 0 -5 -2 1 -0
-1 -11 3 10 14 10 0 -4 -1 0 -5 1 1 2 -2 -2 -1 1 -1 1 1 -2 -5 -2 -2 -3 -3 1 -2 1 2 -0 -2 -1 1 -3 -1 -1 -3 -1 -2 -2 -1 -0 1 -7 -2 -0 0
-3 -6 13 1 15 1 -4 -4 1 0 -0 3 -2 1 -1 0 -2 -1 -1 -0 2 -0 -2 -2 -0 -1 -3 -3 -1 -0 -0 2 0 -2 -1 -4 1 0 0 -2 -2 -0 -0 4 1 -2 -6 -3 3
10 1 4 2 10 -1 -7 -2 -8 3 3 4 -1 -3 0 1 -0 -1 -2 -1 1 1 -2 -2 -2 -2 -1 -3 -1 -3 -0 1 2 -0 -0 -3 -2 3 -0 -1 0 1 6 4 10 1 3 -3 5
-11 1 2 6 7 -3 2 -2 -5 -7 14 -3 -2 1 -2 1 2 1 -1 -1 0 -0 1 -1 -3 -2 -3 -2 -0 1 -1 -0 1 -0 -1 1 -1 -1 -0 1 1 -2 1 4 4 -1 5 -5 -2
-3 3 -2 1 1 5 -1 2 4 -2 1 1 -3 -5 0 -2 1 -1 -0 2 1 0 -2 -2 -2 0 -3 -2 -0 2 1 1 1 -0 1 1 1 -3 -2 0 2 -2 1 6 -3 3 0 -2 -2
-3 3 3 0 3 2 1 9 -22 11 9 -3 -5 -3 -1 2 -1 3 2 2 -1 -2 -2 -3 -1 -0 -1 -2 -1 -0 -0 0 3 2 -1 -2 1 -3 1 1 2 10 13 4 -0 1 -3 0 -1
4 -3 -2 3 7 5 -3 3 -1 6 -3 -2 -4 -0 -2 3 2 1 1 -0 -1 2 -3 1 -1 -1 -1 -0 -1 -0 1 -1 0 1 0 1 -2 0 3 1 2 3 0 9 -1 2 2 5 0
2 -5 1 11 6 13 -5 30 -13 4 1 -5 -0 -0 1 1 0 3 2 -3 3 0 0 1 -2 -2 -3 -1 -2 1 -1 -0 1 2 1 1 -3 -2 -1 -0 1 2 5 11 3 -1 -1 -0 5
1 2 -2 15 3 -6 -2 14 1 7 1 -3 2 -0 2 0 -1 -2 -1 -0 2 0 3 1 -1 -0 -3 -1 0 1 -2 1 0 2 -0 -1 -3 -0 -2 -1 -1 -1 11 -1 6 -0 -1 2 2
2 -3 4 -4 3 3 -1 8 -3 7 1 3 3 -2 -4 -3 1 -4 2 -0 1 2 0 4 -0 1 -1 -1 -0 1 -1 0 -0 3 0 -2 -0 -2 -4 -0 -2 1 13 1 2 4 -3 2 -2
4 -10 -1 11 4 -7 10 1 -0 2 -3 3 3 -1 -1 -2 -2 -2 -0 -2 2 -3 -0 2 2 -1 -1 1 -0 1 2 -2 -1 1 0 0 -3 -1 -1 2 -1 4 -3 13 8 0 -1 0 -0
-1 -1 8 2 1 -7 13 3 -4 7 1 -1 2 2 -8 2 -1 2 2 1 -2 -3 -3 2 1 0 -1 -0 2 -2 0 -1 -0 2 1 3 -1 -1 1 -1 1 1 5 3 -3 -2 -2 -1 -3
6 -6 21 4 -4 -10 3 2 6 -8 4 4 -1 -2 -2 -3 -5 -2 1 2 -0 -1 0 -0 4 0 -0 -1 2 -2 -1 -1 -0 2 1 1 -0 0 -3 1 1 6 8 10 21 1 -3 -2 3
-10 22 11 5 -8 -6 -10 16 -5 -6 7 5 -0 -1 -3 -4 -3 3 4 -0 3 -4 -3 0 2 0 0 -0 -0 -0 0 -2 0 2 2 -1 -0 -0 2 -1 -5 2 2 14 -1 13 -1 1 -1
-9 3 5 3 -6 -4 -0 -1 27 0 5 2 1 -1 -4 -2 -0 -0 -1 -3 0 0 -3 -1 4 -1 -1 -0 -1 0 1 -1 0 1 2 -1 -1 2 2 -3 1 -1 2 7 0 3 -2 -0 -5
26 1 9 3 4 -39 25 5 8 -1 3 -4 -3 2 2 -0 -2 -4 -4 -1 -3 1 -0 -2 3 -2 -1 -0 -0 1 -1 -2 -1 -0 -0 -2 0 1 2 -4 4 17 17 5 4 2 19 0 1
1 13 2 2 -7 -10 10 2 27 -1 2 -3 8 4 -1 -6 -5 -6 -3 -2 -1 2 1 -3 1 -3 -2 -1 -1 -1 3 -1 -1 2 0 -4 1 1 1 1 1 0 1 14 2 15 1 1 1
10 9 -2 -4 -2 2 3 -8 -15 3 2 2 -3 -2 -2 2 1 0 -1 -2 -1 -2 2 0 -1 -2 -2 -1 1 -1 -1 -0 -2 2 3 -5 1 0 2 -2 -2 -2 9 5 0 5 0 1 -2
3 -28 32 6 -6 -5 12 -9 2 -2 1 3 -1 -1 -5 -4 -1 -1 -5 -1 4 1 -1 -0 -2 -1 -3 -1 -1 -1 6 1 -1 1 1 -4 -1 -2 2 -1 0 -4 1 13 10 5 4 3 2
-6 17 9 -2 -9 -7 6 7 2 -1 1 -1 -1 -3 0 0 3 -2 -4 -2 -1 4 0 1 0 -1 -3 2 -1 -1 -4 -1 -1 -1 2 -4 -1 2 -2 1 -2 -2 -3 -0 20 9 2 0 2
15 3 -5 2 -2 -7 5 -1 -2 2 -2 -1 -2 -2 -0 -1 -1 -2 -2 -2 -3 -0 4 -0 1 -2 0 -0 0 -6 8 12 0 2 2 -3 -1 4 -0 -2 -1 0 -9 -2 1 6 7 3 -3
3 28 11 10 3 -2 9 28 7 -2 2 2 -4 -8 -5 -2 -0 -2 -3 -5 -3 4 2 -1 0 -1 0 0 -0 -2 2 5 1 -1 2 -3 -2 3 2 -1 0 3 -2 0 6 1 1 3 1
Height
5842 5842 5842 5842 5845 5843 5842 5842 5841 5840 5840 5840 5841 5841 5840 5839 5839 5841 5837 5836 5835 5834 5833 5832 5831 5829 5827 5825 5823 5821 5819 5817 5816 5815 5815 5814 5814 5814 5814 5813 5812 5812 5812 5812 5813 5813 5814 5815 5818
5838 5838 5838 5839 5840 5839 5839 5838 5837 5837 5837 5837 5838 5837 5837 5836 5836 5835 5834 5832 5832 5831 5830 5829 5828 5826 5824 5823 5820 5818 5816 5814 5813 5811 5811 5810 5810 5811 5810 5809 5809 5807 5806 5806 5808 5811 5812 5813 5815
5834 5833 5834 5834 5835 5836 5836 5835 5833 5833 5833 5834 5834 5834 5833 5832 5832 5831 5830 5829 5829 5829 5828 5826 5825 5824 5823 5821 5818 5816 5813 5810 5809 5809 5807 5806 5805 5804 5804 5803 5804 5804 5801 5801 5803 5805 5808 5811 5814
5829 5829 5829 5830 5831 5831 5830 5830 5830 5829 5829 5829 5830 5830 5829 5827 5828 5829 5827 5825 5825 5824 5823 5823 5822 5820 5819 5818 5816 5814 5812 5808 5806 5804 5803 5802 5801 5799 5799 5789 5797 5788 5797 5798 5801 5802 5805 5807 5811
5823 5823 5823 5825 5827 5826 5824 5825 5825 5825 5825 5825 5826 5826 5825 5823 5824 5826 5824 5822 5821 5820 5819 5819 5817 5816 5815 5814 5812 5810 5808 5806 5803 5799 5798 5797 5797 5797 5794 5788 5793 5794 5791 5793 5797 5799 5800 5803 5805
5817 5818 5818 5820 5820 5818 5818 5818 5820 5820 5820 5821 5821 5822 5820 5819 5819 5821 5820 5818 5818 5817 5815 5813 5811 5811 5810 5809 5809 5807 5805 5802 5801 5798 5795 5794 5794 5794 5792 5791 5790 5789 5788 5790 5794 5795 5795 5798 5801
5810 5811 5812 5812 5815 5814 5813 5812 5812 5813 5814 5815 5816 5817 5816 5814 5815 5815 5815 5814 5813 5812 5810 5809 5806 5804 5805 5805 5804 5803 5801 5799 5797 5796 5792 5789 5788 5789 5789 5787 5784 5784 5785 5786 5789 5789 5789 5793 5798
5804 5803 5804 5806 5808 5809 5808 5806 5806 5805 5806 5809 5810 5810 5811 5811 5810 5810 5809 5809 5808 5807 5806 5805 5802 5800 5799 5800 5799 5798 5796 5794 5792 5791 5789 5787 5784 5783 5783 5782 5781 5780 5783 5781 5783 5784 5785 5789 5794
5795 5795 5796 5798 5802 5803 5801 5798 5798 5798 5798 5800 5802 5804 5805 5805 5804 5804 5803 5803 5803 5802 5801 5800 5799 5796 5794 5794 5794 5792 5790 5789 5787 5785 5784 5783 5782 5779 5778 5777 5777 5778 5778 5777 5779 5781 5783 5786 5792
5785 5786 5788 5788 5792 5791 5791 5791 5791 5791 5791 5791 5793 5796 5797 5798 5798 5798 5798 5797 5796 5797 5796 5794 5793 5792 5789 5788 5787 5786 5785 5784 5782 5780 5779 5778 5776 5774 5773 5772 5772 5773 5774 5774 5776 5779 5780 5784 5790
5777 5777 5778 5776 5780 5780 5781 5782 5783 5783 5784 5783 5784 5787 5789 5790 5791 5792 5791 5790 5789 5790 5791 5789 5787 5786 5785 5783 5780 5779 5778 5778 5777 5775 5774 5772 5771 5768 5765 5765 5766 5767 5769 5771 5772 5774 5778 5782 5787
5766 5767 5767 5768 5769 5769 5770 5772 5774 5776 5777 5775 5776 5779 5780 5781 5782 5783 5784 5783 5783 5784 5784 5784 5781 5780 5779 5777 5774 5773 5772 5771 5771 5770 5768 5767 5765 5763 5760 5759 5761 5762 5765 5766 5769 5772 5774 5777 5783
5755 5757 5757 5758 5758 5759 5760 5762 5766 5765 5765 5768 5768 5770 5771 5772 5774 5775 5777 5777 5777 5777 5777 5777 5776 5773 5772 5770 5767 5766 5767 5766 5765 5764 5763 5761 5759 5756 5754 5756 5756 5758 5761 5763 5766 5768 5771 5774 5778
5744 5746 5747 5747 5748 5750 5751 5754 5754 5754 5757 5757 5758 5761 5761 5763 5766 5768 5769 5769 5770 5769 5769 5770 5769 5767 5766 5763 5761 5760 5761 5760 5760 5760 5758 5755 5754 5751 5749 5752 5752 5755 5758 5760 5763 5765 5767 5770 5774
5731 5733 5735 5735 5737 5740 5741 5742 5745 5746 5746 5749 5750 5751 5752 5755 5758 5760 5761 5761 5761 5762 5762 5763 5763 5760 5759 5756 5754 5753 5754 5753 5753 5753 5753 5751 5749 5747 5746 5748 5748 5750 5753 5757 5759 5762 5764 5767 5769
5717 5719 5722 5724 5726 5730 5730 5735 5733 5736 5735 5737 5739 5741 5743 5746 5749 5751 5752 5752 5754 5755 5756 5755 5754 5753 5751 5749 5747 5747 5747 5747 5747 5747 5747 5745 5743 5742 5741 5743 5743 5744 5747 5751 5755 5758 5760 5762 5765
5705 5708 5710 5714 5715 5717 5720 5721 5721 5723 5726 5728 5730 5732 5734 5736 5739 5741 5741 5745 5746 5748 5749 5748 5746 5745 5743 5741 5740 5741 5741 5741 5741 5740 5741 5740 5738 5735 5735 5736 5737 5738 5743 5746 5750 5753 5756 5758 5761
5693 5696 5699 5700 5702 5704 5706 5708 5709 5713 5715 5719 5721 5723 5725 5727 5730 5730 5734 5736 5739 5740 5741 5740 5739 5738 5735 5733 5733 5734 5734 5735 5735 5735 5734 5733 5733 5730 5729 5729 5731 5732 5737 5740 5745 5748 5751 5753 5756
5679 5680 5684 5686 5687 5690 5697 5698 5698 5698 5704 5708 5711 5714 5716 5718 5721 5724 5725 5727 5729 5730 5732 5731 5731 5729 5726 5726 5726 5727 5728 5728 5728 5728 5727 5726 5726 5724 5722 5722 5722 5724 5728 5734 5740 5743 5746 5749 5753
5663 5667 5673 5671 5671 5677 5683 5686 5686 5687 5693 5696 5699 5702 5707 5710 5711 5714 5716 5719 5720 5721 5722 5722 5723 5720 5718 5718 5719 5720 5720 5722 5722 5722 5721 5720 5720 5717 5715 5713 5712 5714 5722 5727 5732 5736 5740 5744 5749
5650 5655 5657 5657 5655 5662 5667 5672 5675 5677 5681 5684 5687 5690 5694 5698 5702 5704 5706 5709 5711 5712 5713 5713 5713 5711 5709 5710 5711 5713 5714 5716 5716 5717 5716 5714 5713 5709 5706 5704 5701 5707 5711 5719 5724 5731 5735 5741 5745
5637 5643 5641 5641 5642 5651 5657 5661 5661 5664 5671 5673 5675 5679 5683 5687 5691 5693 5695 5698 5701 5702 5703 5703 5704 5703 5701 5703 5704 5706 5708 5709 5710 5711 5711 5708 5705 5702 5699 5696 5692 5696 5703 5711 5718 5724 5731 5735 5741
5628 5625 5626 5629 5632 5638 5644 5648 5654 5651 5658 5662 5667 5669 5672 5676 5679 5681 5684 5688 5691 5694 5695 5695 5695 5694 5693 5695 5697 5699 5701 5702 5702 5704 5704 5703 5699 5695 5692 5688 5684 5688 5696 5704 5712 5717 5723 5730 5734
5615 5615 5616 5617 5621 5625 5635 5636 5643 5640 5645 5649 5654 5658 5662 5665 5668 5670 5674 5677 5681 5685 5685 5686 5686 5685 5685 5687 5689 5692 5693 5695 5696 5696 5698 5697 5695 5691 5688 5683 5680 5684 5689 5697 5704 5712 5717 5724 5728
5599 5602 5604 5608 5610 5618 5627 5624 5634 5631 5629 5638 5645 5650 5653 5656 5657 5660 5663 5667 5670 5673 5676 5676 5676 5676 5676 5679 5681 5684 5687 5689 5690 5691 5692 5691 5690 5687 5683 5682 5678 5679 5685 5691 5698 5705 5711 5715 5721
5588 5591 5595 5598 5604 5612 5614 5613 5616 5618 5623 5627 5631 5638 5642 5645 5648 5650 5652 5657 5659 5662 5665 5666 5666 5667 5669 5671 5674 5677 5679 5683 5684 5685 5687 5685 5684 5682 5680 5678 5677 5676 5680 5686 5692 5697 5704 5709 5714
5579 5579 5590 5590 5593 5599 5604 5601 5604 5608 5614 5617 5620 5626 5631 5634 5638 5639 5640 5645 5648 5651 5654 5655 5657 5658 5661 5663 5665 5669 5672 5676 5678 5679 5681 5680 5677 5675 5675 5674 5674 5674 5676 5682 5687 5691 5697 5702 5707
5569 5577 5578 5579 5583 5587 5596 5597 5598 5598 5602 5606 5609 5614 5618 5622 5626 5629 5631 5634 5637 5641 5643 5645 5647 5648 5652 5655 5657 5661 5665 5670 5672 5674 5675 5674 5672 5671 5669 5668 5670 5671 5674 5675 5681 5686 5692 5697 5701
5561 5564 5567 5571 5576 5580 5590 5593 5590 5590 5592 5596 5600 5604 5607 5610 5614 5617 5620 5623 5625 5629 5633 5635 5638 5640 5643 5645 5649 5652 5657 5661 5664 5668 5670 5670 5668 5667 5665 5665 5665 5667 5669 5672 5676 5681 5687 5692 5696
5552 5560 5563 5563 5569 5572 5579 5585 5582 5582 5585 5587 5589 5592 5596 5599 5602 5605 5608 5609 5612 5616 5620 5624 5627 5630 5633 5637 5641 5644 5649 5653 5657 5661 5664 5664 5663 5662 5662 5662 5662 5663 5664 5667 5671 5676 5681 5687 5691